Location: Frydek-Mistek
(49.6830°N, 18.3330°E)
Time: 14:17:07
(UTC+02:00)

ISS - Pass Details

Date: 23 April 2026
Orbit: 414 x 424 km, 51.6° (Epoch: 18 May)

Event Time Altitude Azimuth Distance (km) Brightness Sun altitude
Exits shadow 04:43:19 13° 233° (SW) 1,345 -1.9 -8.9°
Maximum altitude 04:46:15 58° 155° (SSE) 496 -3.4 -8.5°
Drops below altitude 10° 04:49:35 10° 75° (ENE) 1,508 0.5 -8.0°
Sets 04:51:43 0° 72° (ENE) 2,378 2.1 -7.7°
